Location: Gro�bocka
(50.8204°N, 11.9702°E)
Time: 14:18:23
(UTC+00:00)

SL-08 RB Rocket - Pass Details

Date: 29 October 2020
Orbit: 648 x 683 km, 97.8° (Epoch: 28 November)

Event Time Altitude Azimuth Distance (km) Brightness Sun altitude
Exits shadow 18:26:08 52° 8° (N) 819 4.1 -24.9°
Drops below altitude 10° 18:29:39 10° 350° (N) 2,079 6.5 -25.4°
Sets 18:31:53 0° 348° (NNW) 3,000 7.3 -25.8°
